User: anonymous
Location: Unspecified
(0.0000°N, 0.0000°E)
Time: 11:43:02
(UTC+00:00)
Language:

ASTRA 1KR - Orbit

View from above orbital plane
View from above orbital plane
View from above satellite
View from above satellite

Ground track
Ground track

The orbit data is extracted from the following two-line orbital elements,

1 29055U 06012A   14113.25123407  .00000097  00000-0  00000+0 0   259
2 29055 000.0174 261.4021 0001693 178.9334 240.4997 01.00272014 29367
Epoch (UTC): 23 April 2014 06:01:46
Eccentricity: 0.0001693
inclination: 0.0174°
perigee height: 35779 km
apogee height: 35793 km
right ascension of ascending node: 261.4021°
argument of perigee: 178.9334°
revolutions per day: 1.00272014
mean anomaly at epoch: 240.4997°
orbit number at epoch: 2936

The dashed part of the orbit path shows where the satellite is in the earth's shadow,  

DLR